Stations météo

réclame
Mon MeteoGroup
Calvi, France (7754): Température de l'air & dewpoint: 10.07.2019 04:00:00 - 16.07.2019 04:00:00 (CEST)Calvi, France (7754): Température de l'air 5cm: 10.07.2019 04:00:00 - 16.07.2019 04:00:00 (CEST)Calvi, France (7754): Vitesse du vent & gusts: 10.07.2019 04:00:00 - 16.07.2019 04:00:00 (CEST)Calvi, France (7754): Direction du vent: 10.07.2019 04:00:00 - 16.07.2019 04:00:00 (CEST)Calvi, France (7754): reduced air pressure: 10.07.2019 04:00:00 - 16.07.2019 04:00:00 (CEST)Calvi, France (7754): visibility: 10.07.2019 04:00:00 - 16.07.2019 04:00:00 (CEST)Calvi, France (7754): Quantités de précipitations: 10.07.2019 04:00:00 - 16.07.2019 04:00:00 (CEST)
Date & Time tt [°C] td [°C] tt 5cm [°C] ff [km/h] ff [knt] fx [km/h] fx [knt] dd ppp [hPa] vv [km] rr [mm]
16.07.2019 04:00:00 20,1 16,1 19,3 15 8 32 18 NNE 1010,2 46 0,2
16.07.2019 03:00:00 20,3 16,3 18,9 18 10 30 16 NNE 1010,0 46 0,0
16.07.2019 02:00:00 20,2 17,4 18,9 15 8 35 19 NE 1009,9 42 0,0
16.07.2019 01:00:00 19,5 17,3 18,4 14 7 37 20 NNE 1009,6 52 1,6
16.07.2019 00:00:00 19,3 17,3 18,4 14 8 28 15 NNE 1009,3 4,7 0,4
15.07.2019 23:00:00 19,6 17,6 18,8 18 10 25 14 NNE 1007,9 17 1,8
15.07.2019 22:00:00 19,7 18,0 18,8 16 9 38 21 N 1007,9 9 1,4
15.07.2019 21:00:00 21,6 17,2 21,4 26 14 43 23 NNE 1006,3 34 0,0
15.07.2019 20:00:00 21,8 17,4 21,3 27 15 46 25 NNE 1005,1 34 0,0
15.07.2019 19:00:00 21,6 18,4 20,4 21 11 46 25 NNE 1004,6 20 1,6
15.07.2019 18:00:00 23,2 18,5 21,4 27 14 53 29 N 1003,7 18 0,0
15.07.2019 17:00:00 27,9 15,2 31,0 6 4 22 12 SE 1002,5 58 0,0
15.07.2019 16:00:00 26,9 17,4 24,4 6 4 22 12 SE 1003,3 48 0,0
15.07.2019 15:00:00 24,1 19,4 21,4 9 5 29 16 SSE 1003,9 43 0,8
15.07.2019 14:00:00 22,2 18,8 21,8 16 9 48 26 NNW 1004,3 15 0,0
15.07.2019 13:00:00 28,0 16,3 29,8 23 12 41 22 WSW 1002,3 44 0,0
15.07.2019 12:00:00 29,9 16,3 29,6 9 5 22 12 SW 1002,6 56 0,0
15.07.2019 11:00:00 27,5 16,8 29,8 15 8 26 14 NNW 1003,0 47 0,0
15.07.2019 10:00:00 27,6 17,2 29,1 6 3 14 7 SSE 1003,1 45 0,0
15.07.2019 09:00:00 26,1 19,0 25,3 5 3 10 5 SSW 1003,8 38 0,0
15.07.2019 08:00:00 23,1 19,7 21,7 5 3 9 5 SSW 1004,2 33 0,0
15.07.2019 07:00:00 21,3 19,0 20,4 4 2 8 4 SSE 1004,3 21 0,0
15.07.2019 06:00:00 21,0 18,4 20,5 5 3 12 7 SSE 1004,4 24 0,0
15.07.2019 05:00:00 21,9 18,9 21,6 8 5 10 5 SSE 1004,8 27 0,0
15.07.2019 04:00:00 22,7 19,3 22,6 10 5 13 7 SSE 1005,2 32 0,0
15.07.2019 03:00:00 23,0 19,8 22,8 4 2 6 4 SW 1005,6 26 0,0
15.07.2019 02:00:00 23,4 20,0 23,2 5 3 13 7 SW 1006,0 31 0,0
15.07.2019 01:00:00 23,8 19,9 23,6 7 4 10 6 SSE 1006,3 31 0,0
15.07.2019 00:00:00 24,5 20,2 24,3 6 3 9 5 S 1007,0 35 0,0
14.07.2019 23:00:00 25,0 20,7 24,6 4 2 8 4 NNW 1006,9 37 0,0
14.07.2019 22:00:00 25,1 20,4 24,8 2 1 10 5 WSW 1006,7 38 0,0
14.07.2019 21:00:00 26,0 20,6 26,2 8 4 11 6 N 1006,6 45 0,0
14.07.2019 20:00:00 27,0 20,3 28,0 10 5 13 7 N 1006,7 42 0,0
14.07.2019 19:00:00 27,2 20,3 28,9 6 3 16 9 NNW 1007,2 44 0,0
14.07.2019 18:00:00 27,6 19,7 30,0 13 7 21 12 N 1007,5 46 0,0
14.07.2019 17:00:00 28,2 19,4 29,7 12 6 23 12 N 1007,8 49 0,0
14.07.2019 16:00:00 27,4 20,5 29,6 11 6 24 13 WNW 1008,3 20 0,0
14.07.2019 15:00:00 27,5 20,1 31,3 12 6 32 18 NNW 1008,3 37 0,0
14.07.2019 14:00:00 28,3 20,3 33,4 16 8 32 17 NNW 1008,3 20 0,0
14.07.2019 13:00:00 28,6 19,8 33,9 19 10 29 16 N 1008,7 59 0,0
14.07.2019 12:00:00 29,0 18,5 33,0 20 11 29 16 N 1008,9 60 0,0
14.07.2019 11:00:00 29,1 19,1 32,0 16 8 23 12 N 1009,0 49 0,0
14.07.2019 10:00:00 28,4 20,2 30,8 10 5 20 11 N 1009,1 59 0,0
14.07.2019 09:00:00 27,5 19,6 28,1 4 2 11 6 NNE 1009,3 47 0,0
14.07.2019 08:00:00 25,5 17,4 22,0 6 3 12 6 ENE 1009,0 44 0,0
14.07.2019 07:00:00 20,9 15,2 18,9 10 5 12 7 S 1008,6 43 0,0
14.07.2019 06:00:00 19,2 16,1 18,3 8 5 10 6 SW 1008,8 27 0,0
14.07.2019 05:00:00 19,4 15,7 18,7 5 3 12 6 S 1008,9 23 0,0
14.07.2019 04:00:00 20,1 16,7 19,7 7 4 14 8 SSW 1009,4 36 0,0
14.07.2019 03:00:00 20,2 16,6 20,1 11 6 13 7 S 1009,6 39 0,0
14.07.2019 02:00:00 21,6 17,4 21,0 10 6 15 8 S 1010,0 39 0,0
14.07.2019 01:00:00 21,6 18,2 21,2 10 5 15 8 SSW 1010,7 37 0,0
14.07.2019 00:00:00 22,7 18,9 21,7 6 3 12 7 S 1010,9 28 0,0
13.07.2019 23:00:00 23,0 19,2 22,5 7 4 10 5 ENE 1010,2 34 0,0
13.07.2019 22:00:00 23,7 19,4 23,0 6 4 9 5 S 1009,6 20 0,0
13.07.2019 21:00:00 25,9 20,5 25,5 5 3 9 5 N 1009,1 31 0,0
13.07.2019 20:00:00 27,1 20,0 29,7 8 4 24 13 N 1008,6 53 0,0
13.07.2019 19:00:00 27,8 20,6 31,0 16 9 29 16 N 1008,4 19 0,0
13.07.2019 18:00:00 29,8 18,6 34,6 19 11 32 17 N 1007,9 55 0,0
13.07.2019 17:00:00 31,8 16,5 37,7 11 6 24 13 NW 1007,9 60 0,0
13.07.2019 16:00:00 31,7 16,0 37,3 9 5 26 14 WSW 1008,3 60 0,0
13.07.2019 15:00:00 31,2 16,0 36,8 15 8 32 18 WSW 1008,4 57 0,0
13.07.2019 14:00:00 31,4 15,8 34,4 9 5 39 21 ESE 1008,6 52 0,0
13.07.2019 13:00:00 30,8 14,8 34,8 17 9 40 22 W 1008,4 56 0,0
13.07.2019 12:00:00 31,4 13,2 34,2 22 12 41 22 WSW 1008,5 60 0,0
13.07.2019 11:00:00 31,3 12,6 33,1 22 12 42 23 SW 1008,5 18 0,0
13.07.2019 10:00:00 31,3 12,1 31,7 28 15 44 24 SSW 1008,1 50 0,0
13.07.2019 09:00:00 30,2 13,0 30,7 30 16 45 25 S 1008,3 56 0,0
13.07.2019 08:00:00 29,5 14,5 28,1 19 10 32 18 S 1008,8 60 0,0
13.07.2019 07:00:00 27,9 14,9 25,9 16 8 31 17 SSW 1008,8 57 0,0
13.07.2019 06:00:00 27,3 14,7 25,2 18 10 31 17 S 1008,9 60 0,0
13.07.2019 05:00:00 27,2 15,2 25,8 16 9 31 17 SSW 1009,2 60 0,0
13.07.2019 04:00:00 26,6 15,3 26,0 19 10 37 20 SSW 1009,1 60 0,0
13.07.2019 03:00:00 26,7 15,1 25,8 16 9 35 19 SSW 1009,7 60 0,0
13.07.2019 02:00:00 26,8 14,5 26,2 18 10 41 22 SSW 1010,3 60 0,0
13.07.2019 01:00:00 27,1 14,8 26,5 27 15 47 26 SSW 1010,6 60 0,0
13.07.2019 00:00:00 27,7 14,3 26,8 24 13 45 24 SSW 1010,9 60 0,0
12.07.2019 23:00:00 27,3 15,3 26,3 23 12 39 21 SSW 1011,0 60 0,0
12.07.2019 22:00:00 26,7 19,1 26,2 20 11 30 16 SSE 1011,2 52 0,0
12.07.2019 21:00:00 27,7 16,9 27,5 11 6 22 12 SSW 1011,0 60 0,0
12.07.2019 20:00:00 29,7 17,2 31,4 13 7 27 15 S 1010,9 49 0,0
12.07.2019 19:00:00 29,8 19,2 32,4 16 9 28 15 SSW 1010,9 60 0,0
12.07.2019 18:00:00 30,4 18,2 34,2 14 8 30 16 WSW 1011,1 34 0,0
12.07.2019 17:00:00 30,2 19,6 35,3 16 9 39 21 W 1011,2 54 0,0
12.07.2019 16:00:00 30,5 19,8 35,8 18 10 42 23 W 1011,3 59 0,0
12.07.2019 15:00:00 30,9 17,6 36,7 20 11 39 21 W 1011,0 20 0,0
12.07.2019 14:00:00 31,4 16,9 35,3 22 12 41 22 WSW 1010,9 20 0,0
12.07.2019 13:00:00 32,2 14,8 35,8 24 13 40 21 WSW 1010,9 60 0,0
12.07.2019 12:00:00 32,4 13,6 34,5 15 8 28 15 SW 1010,9 60 0,0
12.07.2019 11:00:00 30,1 17,5 30,5 10 5 23 12 N 1011,1 60 0,0
12.07.2019 10:00:00 29,0 16,5 30,9 14 8 22 12 NNW 1011,3 52 0,0
12.07.2019 09:00:00 29,3 12,7 28,4 13 7 26 14 SW 1011,3 55 0,0
12.07.2019 08:00:00 27,6 13,5 26,1 13 7 29 16 SSW 1010,8 60 0,0
12.07.2019 07:00:00 25,3 15,6 24,3 6 3 24 13 E 1010,9 19 0,0
12.07.2019 06:00:00 25,0 15,3 24,2 16 9 26 14 S 1010,5 60 0,0
12.07.2019 05:00:00 24,8 16,5 23,8 16 9 29 16 S 1010,8 54 0,0
12.07.2019 04:00:00 24,2 19,5 22,7 22 12 31 17 S 1011,5 39 0,0
12.07.2019 03:00:00 23,3 19,7 22,1 11 6 20 11 SSW 1011,8 32 0,0
12.07.2019 02:00:00 23,5 19,6 23,2 9 5 19 11 S 1011,9 34 0,0
12.07.2019 01:00:00 24,5 20,2 23,9 9 5 14 8 S 1012,0 39 0,0
12.07.2019 00:00:00 25,3 20,3 25,2 6 3 11 6 S 1012,2 44 0,0
11.07.2019 23:00:00 25,8 20,6 25,4 8 4 14 8 S 1012,2 37 0,0
11.07.2019 22:00:00 26,5 20,6 26,6 5 3 16 9 S 1011,8 19 0,0
11.07.2019 21:00:00 26,7 21,0 27,0 6 4 12 7 N 1011,2 37 0,0
11.07.2019 20:00:00 27,1 21,4 28,0 6 3 22 12 E 1011,0 35 0,0
11.07.2019 19:00:00 27,4 21,4 28,3 11 6 23 12 NE 1011,1 31 0,0
11.07.2019 18:00:00 27,8 21,6 29,8 16 9 28 15 N 1011,8 31 0,0
11.07.2019 17:00:00 28,3 21,6 31,4 20 11 39 21 N 1012,1 20 0,0
11.07.2019 16:00:00 29,9 21,8 30,4 26 14 39 21 NNE 1011,9 20 0,0
11.07.2019 15:00:00 29,9 19,6 32,7 14 8 26 14 WSW 1012,2 35 0,0
11.07.2019 14:00:00 28,8 21,3 30,3 16 8 29 15 NE 1012,2 20 0,0
11.07.2019 13:00:00 28,4 21,7 30,1 14 7 31 17 N 1012,6 27 0,0
11.07.2019 12:00:00 28,7 21,5 31,7 14 7 27 15 NNW 1012,8 19 0,0
11.07.2019 11:00:00 29,0 21,5 32,3 18 10 27 15 N 1012,7 18 0,0
11.07.2019 10:00:00 28,5 21,3 30,3 9 5 18 10 NNW 1012,8 19 0,0
11.07.2019 09:00:00 27,6 20,9 28,5 9 5 15 8 N 1012,9 19 0,0
11.07.2019 08:00:00 25,5 19,9 23,4 3 2 12 6 SSW 1012,5 20 0,0
11.07.2019 07:00:00 22,2 19,0 20,9 5 3 14 7 SSW 1012,6 19 0,0
11.07.2019 06:00:00 21,2 18,8 20,5 6 4 15 8 S 1012,2 14 -
11.07.2019 05:00:00 20,8 18,0 20,5 6 3 11 6 S 1012,4 18 0,0
11.07.2019 04:00:00 20,7 18,3 20,4 8 4 11 6 SSE 1012,5 16 0,0
11.07.2019 03:00:00 21,0 18,0 20,8 6 4 14 8 S 1012,6 18 0,0
11.07.2019 02:00:00 21,1 17,9 20,8 7 4 12 7 S 1012,9 18 0,0
11.07.2019 01:00:00 21,6 18,4 20,9 4 2 8 5 SSW 1012,7 20 0,0
11.07.2019 00:00:00 22,3 18,7 21,8 5 3 11 6 S 1012,3 19 0,0
10.07.2019 23:00:00 22,9 19,3 22,5 5 3 11 6 SSW 1012,0 17 0,0
10.07.2019 22:00:00 23,8 20,1 23,5 9 5 11 6 SSW 1011,6 17 0,0
10.07.2019 21:00:00 25,7 20,9 25,7 5 3 15 8 NW 1010,8 17 0,0
10.07.2019 20:00:00 26,9 20,7 29,0 11 6 20 11 N 1010,5 19 0,0
10.07.2019 19:00:00 27,6 20,9 31,1 14 8 23 12 N 1010,2 18 0,0
10.07.2019 18:00:00 28,2 20,7 33,0 17 9 25 14 N 1010,3 19 0,0
10.07.2019 17:00:00 28,4 20,9 34,1 16 8 25 14 N 1010,1 17 0,0
10.07.2019 16:00:00 28,8 20,8 35,3 13 7 29 16 NNW 1009,9 19 0,0
10.07.2019 15:00:00 29,1 20,5 35,9 16 9 27 15 N 1009,8 32 0,0
10.07.2019 14:00:00 29,2 20,6 32,4 16 8 25 13 NNW 1009,6 19 0,0
10.07.2019 13:00:00 28,2 21,7 28,8 8 4 18 10 NNW 1009,9 20 0,0
10.07.2019 12:00:00 26,4 18,5 27,3 10 5 26 14 SSW 1009,8 51 0,0
10.07.2019 11:00:00 26,9 22,7 27,3 15 8 30 16 NNW 1009,0 19 0,0
10.07.2019 10:00:00 28,7 18,8 30,7 9 5 22 12 WNW 1008,2 35 0,0
10.07.2019 09:00:00 29,1 17,9 29,2 8 5 24 13 SSW 1007,8 42 0,0
10.07.2019 08:00:00 27,7 19,2 26,7 13 7 24 13 SSW 1007,7 20 0,0
10.07.2019 07:00:00 26,4 19,0 25,6 11 6 17 9 SSW 1007,7 42 0,0
10.07.2019 06:00:00 25,8 19,9 25,1 11 6 16 9 SSW 1007,5 45 0,0
10.07.2019 05:00:00 26,4 20,7 25,1 5 3 22 12 SSW 1007,4 19 0,0
10.07.2019 04:00:00 26,7 20,3 26,0 10 5 31 17 SW 1007,3 19 0,0

tt = Température de l'air
td = dewpoint
tt 5cm = Température de l'air 5cm
ff = Vitesse du vent
fx = gusts
dd = Direction du vent
ppp = reduced air pressure
vv = visibility
rr = Quantités de précipitations

stations d'obs. à proximité